GW4194 Weather Reports


time (UTC)temp
C
wind
direction
speed
KPH
gust
KPH
rain 1hr
cm
rain 24hr
cm
rain mn
cm
humidity
%
barometer
mb
20260505071558 17 148 3.2 11.3 0.00 0.03 0.00 64 1011.2
20260505070059 17 124 4.8 14.5 0.00 0.03 0.00 65 1011.2
20260505064558 16 149 3.2 12.9 0.00 0.03 0.00 66 1011.3
20260505063132 16 197 3.2 9.7 0.00 0.03 0.00 66 1011.3
20260505061636 16 173 1.6 8.0 0.00 0.03 0.00 66 1011.3
20260505060104 17 199 3.2 9.7 0.00 0.03 0.00 65 1011.5
20260505054603 17 154 3.2 8.0 0.00 0.03 0.00 66 1011.5
20260505053100 16 128 3.2 9.7 0.00 0.03 0.00 67 1011.5
20260505051614 16 173 1.6 6.4 0.00 0.03 0.00 67 1011.5
20260505041600 15 180 1.6 6.4 0.00 0.03 0.00 74 1010.5
20260505040057 16 183 1.6 8.0 0.00 0.03 0.00 71 1010.5
20260505034556 16 158 1.6 4.8 0.00 0.03 0.03 73 1010.5
20260505033057 16 203 1.6 6.4 0.00 0.03 0.03 71 1010.5
20260505031559 16 205 1.6 4.8 0.00 0.03 0.03 73 1010.3
20260505024557 17 184 1.6 6.4 0.00 0.03 0.03 68 1010.2
20260505023058 18 200 1.6 8.0 0.00 0.03 0.03 64 1010.3
20260505021558 18 0 0.0 4.8 0.00 0.03 0.03 62 1010.2
20260505020105 18 161 1.6 9.7 0.00 0.03 0.03 62 1010.1
20260505014558 18 205 1.6 6.4 0.00 0.03 0.03 65 1010.0
20260505013105 18 186 3.2 6.4 0.00 0.03 0.03 64 1010.1
20260505011555 19 0 0.0 6.4 0.00 0.03 0.03 61 1010.1
20260505010112 20 226 1.6 6.4 0.00 0.03 0.03 58 1010.1
20260505004559 21 209 1.6 4.8 0.00 0.03 0.03 54 1010.0
20260505003058 22 172 0.0 11.3 0.00 0.03 0.03 51 1009.9
20260505001604 22 0 1.6 6.4 0.00 0.03 0.03 49 1009.9
20260504234557 23 191 1.6 12.9 0.00 0.03 0.03 45 1009.9
20260504233108 23 171 4.8 11.3 0.00 0.03 0.03 44 1010.0
20260504231604 24 184 6.4 19.3 0.00 0.03 0.03 43 1009.8
20260504230059 24 236 6.4 25.7 0.00 0.03 0.03 42 1009.8
20260504224555 25 159 4.8 22.5 0.00 0.03 0.03 41 1009.9
20260504223059 25 205 8.0 16.1 0.00 0.03 0.03 42 1010.0
20260504221559 25 237 4.8 19.3 0.00 0.03 0.03 42 1010.1
20260504220057 25 242 3.2 11.3 0.00 0.03 0.03 44 1010.0
20260504214558 25 190 4.8 20.9 0.00 0.03 0.03 43 1010.1
20260504213055 25 333 6.4 22.5 0.00 0.03 0.03 42 1010.2
20260504211557 25 154 12.9 25.7 0.00 0.03 0.03 42 1010.1
20260504210107 25 223 6.4 22.5 0.00 0.03 0.03 44 1010.3
20260504204614 24 210 11.3 30.6 0.00 0.03 0.03 44 1010.4
20260504203109 24 155 8.0 25.7 0.00 0.03 0.03 48 1010.5
20260504201557 23 189 6.4 17.7 0.00 0.03 0.03 52 1010.7
20260504200057 23 150 8.0 22.5 0.00 0.03 0.03 53 1011.2
20260504194602 22 210 9.7 25.7 0.00 0.03 0.03 54 1011.4
20260504193057 22 219 8.0 20.9 0.00 0.03 0.03 56 1011.8
20260504191558 21 171 6.4 16.1 0.03 0.03 0.03 60 1011.8
20260504190128 20 169 6.4 16.1 0.03 0.03 0.03 62 1012.0
20260504184555 19 159 6.4 17.7 0.03 0.03 0.03 66 1012.6
20260504183100 18 166 1.6 16.1 0.03 0.03 0.03 68 1013.1
20260504181558 19 255 4.8 20.9 0.00 0.00 0.00 58 1013.3
20260504180057 20 217 9.7 22.5 0.00 0.00 0.00 52 1012.8
20260504174600 20 190 17.7 37.0 0.00 0.00 0.00 51 1012.5
20260504173059 20 205 12.9 30.6 0.00 0.00 0.00 53 1012.6
20260504171557 20 180 11.3 29.0 0.00 0.00 0.00 54 1012.3
20260504081604 7 185 1.6 4.8 0.00 0.00 0.00 82 1015.0